PAKSAT-MM1

Last updated on Wed Nov 20 2024 00:02:44 GMT+0000 (Coordinated Universal Time)

1 59915U 24104A 24323.51594649 .00000157 00000+0 00000+0 0 9998 2 59915 0.0009 34.8175 0003929 268.3588 338.8404 1.00274720 1814
UTC large
Height (km)
Speed (km/s)
/
Latitude / Longitude
Inclination (degrees)
Orbital Period (minutes)
Azimuth
Elevation
Range (km)
Doppler Factor

Next 0 passes for location: London (51.5072 / 0.1276)

Sorry there are no passes over London.